Starlink 31151

operational
NORAD ID: 58742 Int'l Des: 2024-005 Owner: SPXS Country: US Constellation: starlink
LEOCIRCULAR

About Starlink 31151

Description loading...

Live Position

Loading 3D Globe...

Upcoming Passes

Altitude History

Altitude vs Time

uPlot chart will show altitude changes over time

Two-Line Element Set

1 58742U 24005Q 25257.27393847 .00000646 00000-0 62865-4 0 9998
2 58742 43.0034 100.2677 0001266 263.7469 96.3229 15.02534336 93978
Epoch: Sep 14, 2025 • Age: 28 hours

Current Status

Altitude 567.8 km
Velocity 7.58 km/s
Sub-Earth Point -33.46°S, 111.49°W
Launch Date Jan 7, 2024
Age 1.6 years
Type internet

Technical Details

Classification Payload
Mass 730.00 kg
Dry Mass 700.00 kg
Total Mass 730.00 kg
Length 0.30 m
Diameter 4.10 m
Span 29.00 m
Shape Box + pan
Manufacturer SPXS
Bus Type Starlink V2M
Phase Status In Orbit
Owner/State SPXS/US

Large Constellations

Loading constellations...